Tracking 19145 objects as of 25-Apr-2018
HD Live streaming from Space Station
objects crossing your sky now

WESTFORD NEEDLES

Track WESTFORD NEEDLES now!
10-day predictions
WESTFORD NEEDLES is classified as:


NORAD ID: 19299
Int'l Code: 1963-014EL
Perigee: 2,731.6 km
Apogee: 4,523.2 km
Inclination: 87.1 °
Period: 165.8 minutes
Semi major axis: 9998 km
RCS: 0.2061 m2 (medium)
Launch date: May 9, 1963
Source: United States (US)
Launch site: AIR FORCE WESTERN TEST RANGE (AFWTR)
aabbcc
Your satellite tracking list
Your tracking list is empty




NASA's NSSDC Master Catalog

Two Line Element Set (TLE):
1 19299U 63014EL  18114.23424072  .00001100  00000-0  33240+0 0  9996
2 19299  87.1293  32.5508 0895985 158.7698 335.2362  8.68374247970282
Source of the keplerian elements: AFSPC